Regional Weather Roundup
Issued by NWS Midland/Odessa, TX

Skip options and go directly to product.
Home | Oldest Version | Previous Version | Current Version | All | Graphics & Text | Save Text | Print | Product List | Glossary On

Skip product version selection by date and time.   
125
ASUS44 KMAF 220002
RWRMAF
MIDLAND AREA WEATHER ROUNDUP
NATIONAL WEATHER SERVICE MIDLAND TX
700 PM CDT TUE OCT 21 2014

...IN SOUTHWEST TEXAS AND SOUTHEAST NEW MEXICO...

CITY           SKY/WX    TMP DP  RH WIND       PRES   REMARKS
ALPINE         CLOUDY    62  56  82 S3        30.13S
ANDREWS        CLOUDY    69  55  62 S3        30.06F
ARTESIA        NOT AVBL
BIG SPRING     MOCLDY    74  55  51 SE5       30.06R
CARLSBAD       CLOUDY    66  60  81 SE9       30.02F
DRYDEN           N/A     67  65  93 SE5       30.02S
FORT STOCKTON  LGT RAIN  65  61  87 SE10      30.05S
GUAD PASS      NOT AVBL
HOBBS          CLOUDY    63  55  77 SE7       30.08S
MARFA          MOCLDY    59  57  94 E8        30.11S
MIDLAND AIRPK  CLOUDY    74  53  47 SE6       30.05R
MIDLAND INTL   CLOUDY    73  55  53 SE9       30.04S
ODESSA         CLOUDY    72  53  51 S8        30.05S
PECOS          RAIN      65  61  88 SE8G20    30.02R
PRESIDIO       FAIR      69  60  72 NE10      29.99R
SEMINOLE       LGT RAIN  61  59  92 CALM      30.08S
SNYDER         CLOUDY    72  51  46 SE7       30.05S
WINK           CLOUDY    69  60  73 SE10      30.02S
$$
...OTHER STATIONS IN TEXAS...

CITY           SKY/WX    TMP DP  RH WIND       PRES   REMARKS
ABILENE        PTCLDY    75  52  44 SE8       30.03S
AMARILLO       CLEAR     69  48  47 SE9       30.06R
AUSTIN         MOCLDY    73  50  44 NE7       30.00R
BROWNSVILLE    HVY RAIN  75  72  90 SE18G29   29.90R FOG
CORPUS CHRISTI MOCLDY    77  68  73 E13       29.95R
DALLAS FTW     PTCLDY    74  57  55 SE8       30.03R
DEL RIO        CLOUDY    74  65  73 W10       29.96R
EL PASO        PTCLDY    70  53  54 E9        29.99S
HOUSTON INT    PTCLDY    75  59  57 NE7       29.99R
LUBBOCK        MOCLDY    71  50  47 S13       30.05S
SAN ANGELO     CLOUDY    77  52  41 E7        30.01R
SAN ANTONIO    PTCLDY    78  50  37 E7        29.99R
WACO           CLEAR     74  54  49 E5        30.01S
WICHITA FALLS  NOT AVBL
$$
...OTHER LOCATIONS IN NEW MEXICO...

CITY           SKY/WX    TMP DP  RH WIND       PRES   REMARKS
ALAMAGORDO     NOT AVBL
ALBUQUERQUE    PTCLDY    67  44  43 SE13      30.05F
CANNON AFB     NOT AVBL
CLOVIS         MOCLDY    59  54  82 W13       30.11S
HOLLOMAN AFB   PTCLDY    68  55  61 S8        30.01S
ROSWELL        PTCLDY    63  58  83 SE13      30.05S
RUIDOSO        PTCLDY    55  48  76 SE7       30.17S
SANTA FE       PTCLDY    61  42  49 CALM      30.09F
TRUTH OR CONSE PTCLDY    66  49  54 CALM      30.03F
TUCUMCARI      MOCLDY    64  53  67 SW18G26   30.04R
$$

USA.gov is the U.S. government's official web portal to all federal, state and local government web resources and services.